Location: K�rdu
(58.2847°N, 22.5806°E)
Time: 15:33:34
(UTC+00:00)

Daily predictions for brighter satellites

Satellite Brightness Start Highest point End
(mag) Time Altitude Azimuth Time Altitude Azimuth Time Altitude Azimuth
Cosmos 1943 Rocket 2.3 15:41:49 10° SSW 15:47:16 60° ESE 15:52:43 10° NE
Cosmos 1741 Rocket 4.0 15:42:43 10° NNW 15:48:00 66° NE 15:53:13 10° SE
FengYun 1-2 T 4.3 15:44:08 10° SSE 15:49:49 82° ENE 15:55:30 10° NNW
Landsat 5 3.3 15:46:36 10° NNE 15:50:28 89° ESE 15:54:19 10° SSW
IRS-1C Rocket 4.2 15:45:39 10° SE 15:50:50 61° ENE 15:56:03 10° NNW
AQUARIUS 4.4 15:46:32 10° SSE 15:51:02 77° WSW 15:55:35 10° NNW
ATLAS 2AS CENTAUR R/B 3.3 15:43:33 10° W 15:51:26 61° N 15:58:55 10° ENE
Cosmos 1470 2.7 15:48:03 10° S 15:51:56 85° ESE 15:55:51 10° NNE
Cosmos 1908 4.3 15:48:58 10° SE 15:52:04 24° E 15:55:14 10° NE
Cosmos 1844 Rocket 4.3 15:47:30 10° WNW 15:52:10 26° NNW 15:56:53 10° NE
Cosmos 1371 Rocket 4.2 15:47:24 10° S 15:52:36 56° ESE 15:57:47 10° NE
Okean O Rocket 2.2 15:48:59 10° S 15:53:21 65° WSW 15:57:43 10° NNW
CZ-4 R/B 2.0 15:50:13 10° SE 15:53:46 33° ENE 15:57:17 10° N
COSMOS 2455 3.4 15:48:52 10° WSW 15:54:50 59° NNW 16:00:51 10° NE
CZ-2D R/B 3.7 15:51:42 10° SE 15:55:18 40° ENE 15:58:54 10° N
SMAP 3.6 15:50:54 10° S 15:55:32 65° WSW 16:00:12 10° NNW
ATLAS 5 CENTAUR R/B 2.4 15:52:26 10° S 15:56:12 32° SE 16:00:27 10° ENE
Cosmos 1758 3.3 15:53:54 10° S 15:58:00 78° E 16:02:07 10° NNE
COSMO-SKYMED 1 3.5 15:54:18 10° NE 15:58:02 27° E 16:01:43 10° SSE
USA 305 3.9 15:54:16 10° SW 15:58:14 36° SSE 16:02:11 10° E
NOSS 2-1 (D) 4.4 15:57:57 10° S 16:00:31 21° SE 16:03:20 10° ENE
USA 215 3.5 15:54:16 10° ESE 16:00:50 76° SSW 16:07:25 10° W
Cosmos 2263 Rocket 3.7 15:56:41 10° NW 16:01:12 23° N 16:05:44 10° ENE
Lacrosse 5 2.9 15:57:39 10° SSW 16:02:02 30° SE 16:06:26 10° E
ERBS 4.2 16:01:07 10° S 16:03:13 16° SE 16:05:20 10° E
Cosmos 2056 Rocket 3.6 15:58:42 10° S 16:03:47 59° ESE 16:08:51 10° NE
Meteor 2-10 3.9 15:59:00 10° S 16:04:03 69° E 16:09:04 10° NNE
USA 306 3.8 16:00:13 10° SW 16:04:11 37° SSE 16:08:07 10° E
Cosmos 1892 4.4 16:02:56 10° NNE 16:05:25 16° ENE 16:07:51 10° E
Envisat 4.4 16:01:07 10° S 16:05:58 44° W 16:10:52 10° NNW
H-2A R/B 2.7 16:02:21 10° ESE 16:07:17 38° ENE 16:12:17 10° N
Cosmos 1850 Rocket 4.0 16:02:31 10° NNW 16:07:50 86° ENE 16:13:09 10° SSE
ARGOS 3.9 16:04:18 10° ESE 16:09:04 33° NE 16:13:52 10° N
SAR-Lupe-4 4.2 16:06:06 10° NNE 16:09:28 35° E 16:12:48 10° SSE
Cosmos 1328 3.7 16:06:42 10° N 16:10:39 63° ENE 16:14:34 10° SSE
H-2A R/B 2.4 16:09:09 10° NNE 16:13:27 70° WNW 16:17:37 10° SSW
Okean-O 2.7 16:09:28 10° SE 16:13:49 57° ENE 16:18:11 10° N
COSMOS 2487 2.3 16:10:38 10° NNW 16:14:07 77° ENE 16:17:34 10° SSE
SeaSat 1 2.5 16:09:25 10° SE 16:14:19 70° NE 16:19:16 10° NW
CSL-04 Rocket 4.1 16:09:43 10° SE 16:14:58 44° ENE 16:20:12 10° N
Cosmos 2098 Rocket 3.2 16:12:39 10° NNW 16:16:35 60° W 16:19:47 10° S
NOAA 11 4.5 16:12:46 10° SSE 16:18:14 75° WSW 16:23:43 10° NNW
Cosmos 1825 Rocket 3.7 16:13:49 10° N 16:18:15 56° ENE 16:22:39 10° SSE
Cosmos 1452 Rocket 4.1 16:16:07 10° S 16:20:53 36° ESE 16:25:41 10° NE
NOSS 2-2 (C) 4.1 16:17:13 10° WNW 16:21:52 75° NNE 16:28:18 10° ESE
Cosmos 2266 Rocket 4.0 16:16:35 10° NNW 16:22:45 89° W 16:29:00 10° S
Cosmos 2297 Rocket 2.5 16:19:27 10° NW 16:25:00 49° NE 16:30:19 11° ESE
YAOGAN 1 2.6 16:21:11 10° SE 16:25:25 56° ENE 16:29:42 10° N
SJ-6B 4.5 16:24:02 14° E 16:25:42 18° NE 16:28:32 10° N
Cosmos 1300 3.9 16:24:20 10° SE 16:27:15 21° E 16:30:11 10° NE
Cosmos 1656 Rocket 3.9 16:21:55 10° S 16:27:16 49° ESE 16:32:42 10° NE
CZ-4 R/B 4.4 16:23:07 10° SSE 16:27:17 83° ENE 16:31:30 10° NNW
SAR-Lupe-1 4.3 16:23:55 10° NNE 16:27:27 49° ESE 16:30:57 10° S
Cosmos 304 Rocket 4.0 16:23:04 10° S 16:27:38 46° ESE 16:32:13 10° NE
HJ-1C 4.2 16:25:47 10° SE 16:28:48 32° ENE 16:31:51 10° N
CZ-2C R/B 3.3 16:24:06 10° SE 16:29:50 63° ENE 16:35:29 10° NNW
Cosmos 1624 Rocket 4.0 16:24:33 10° SSW 16:29:51 86° ESE 16:35:12 10° NNE
Cosmos 2369 Rocket 2.2 16:24:38 10° SSW 16:30:19 76° ESE 16:36:03 10° NE
Cosmos 1758 Rocket 3.6 16:29:03 10° NNW 16:33:34 89° E 16:37:59 10° SSE
Cosmos 1726 2.7 16:31:29 10° SSW 16:35:12 63° WNW 16:38:57 10° N
Cosmos 1689 Rocket 2.3 16:33:56 10° NNE 16:36:45 44° E 16:39:34 10° S
SJ-11-01 4.4 16:32:38 10° SE 16:37:09 52° ENE 16:41:43 10° N
Cosmos 1544 Rocket 4.1 16:33:00 10° SSW 16:37:20 63° WNW 16:41:43 10° N
Meteor 2-21 4.5 16:31:55 10° NNW 16:38:11 89° E 16:44:20 10° SSE
Meteor 2-14 Rocket 4.4 16:32:04 10° NNW 16:38:16 86° ENE 16:44:27 10° SSE
Cosmos 1818 4.1 16:34:50 10° SSW 16:39:52 40° SE 16:44:06 14° ENE
Timation 2 Rocket 4.1 16:34:50 10° NW 16:41:17 81° NE 16:48:00 10° SE
Cosmos 1726 Rocket 4.2 16:39:13 10° SSE 16:43:04 32° E 16:47:00 10° NNE
OBJECT-B 3.1 16:44:06 12° NE 16:44:06 12° NE 16:45:00 10° NNE
PSLV R/B 4.1 16:39:30 10° NNE 16:43:39 51° E 16:47:44 10° S
Cosmos 2219 3.3 16:38:11 10° NW 16:43:53 61° NE 16:48:57 13° SE
USA 307 3.5 16:39:52 10° WSW 16:43:58 44° S 16:46:32 20° ESE
CSL-04 Debris 4.1 16:40:52 10° SSE 16:46:15 69° ENE 16:51:42 10° NNW
SKYMED 2 3.5 16:42:05 10° NNE 16:46:25 63° ESE 16:50:44 10° S
Cosmos 1825 3.7 16:43:44 10° NNE 16:46:25 18° ENE 16:46:26 18° ENE
Cosmos 371 Rocket 3.4 16:42:56 10° SSW 16:47:47 81° WNW 16:52:41 10° NNE
USA 308 3.5 16:44:26 10° WSW 16:48:31 45° S 16:50:55 22° ESE
Ariane Rocket 3.7 16:46:29 17° ESE 16:49:50 35° ENE 16:54:27 10° N
Geosat 4.5 16:45:13 10° NE 16:49:56 38° ESE 16:54:36 10° S
EP 3 3.8 16:48:55 10° SW 16:50:39 47° SSE 16:50:39 47° SSE
Helios 1A Rocket 3.4 16:46:53 10° S 16:51:00 65° WSW 16:55:07 10° NNW
Cosmos 1953 2.8 16:47:08 10° SSW 16:51:04 63° WNW 16:55:03 10° N
NOSS 2-1 (E) 3.4 16:50:00 10° SSW 16:53:13 44° SE 16:54:56 26° ENE
Cosmos 1606 Rocket 3.7 16:51:30 10° S 16:55:42 49° E 16:59:58 10° NNE
SL-4 R/B 3.5 16:54:21 10° SSW 16:56:56 19° SSE 16:57:35 18° SE
Cosmos 2082 4.2 16:52:05 10° NW 16:57:37 45° NE 17:00:53 23° E
SL-08 RB Rocket 4.0 16:55:44 18° SE 16:58:46 43° ENE 17:03:02 10° N
Genesis I 3.4 16:59:51 10° WSW 17:03:41 68° NNW 17:06:07 22° NE
Cosmos 1340 2.7 17:00:50 10° N 17:04:35 57° ENE 17:06:52 21° SE
Cosmos 1346 Rocket 3.4 17:01:06 10° N 17:04:49 35° ENE 17:05:41 31° E
Cosmos 332 Rocket 3.9 17:00:02 10° SSW 17:04:57 81° WNW 17:09:56 10° NNE
Cosmos 2278 Rocket 3.9 17:00:27 10° WNW 17:05:15 27° NNW 17:10:05 10° NE
ADEOS Rocket 4.1 17:01:05 10° N 17:06:39 46° WNW 17:12:43 10° SW
Cosmos 2058 3.4 17:03:22 10° N 17:07:15 38° ENE 17:08:20 32° ESE
Meteor 2-16 Rocket 4.5 17:03:44 10° NNW 17:09:52 84° W 17:15:57 10° S
NOSS 2-2 (E) 4.5 17:06:12 10° WNW 17:11:11 70° SW 17:16:51 15° SE
Cosmos 2058 Rocket 3.5 17:08:57 10° SSE 17:13:07 40° E 17:17:22 10° NNE
Cosmos 1331 Rocket 4.4 17:08:47 10° S 17:13:32 38° ESE 17:18:09 11° NE
Cosmos 1953 Rocket 3.8 17:10:20 10° NNW 17:14:42 72° W 17:19:05 10° S
ERS-2 3.8 17:12:05 10° N 17:15:26 35° WNW 17:18:46 10° SW
Resurs 01 Rocket 3.0 17:16:52 22° NE 17:16:52 22° NE 17:20:12 10° N
MOS 1 Rocket 3.4 17:12:52 10° NNE 17:17:08 46° E 17:21:36 10° S
Cosmos 2228 2.8 17:13:14 10° S 17:17:29 77° E 17:21:46 10° NNE
CZ-4B R/B 3.4 17:17:41 10° N 17:20:42 30° WNW 17:23:38 10° SW
NOSS 3-4 (A) 3.9 17:14:32 10° WNW 17:20:57 62° NNE 17:24:52 28° E
NOSS 3-4 (C) 3.9 17:14:38 10° WNW 17:21:03 62° NNE 17:24:58 28° E
Aureole 3 Rocket 3.2 17:17:59 12° SSE 17:21:16 47° E 17:26:03 10° NNE
Cosmos 1356 Rocket 4.3 17:17:21 10° SSW 17:21:31 53° WNW 17:25:46 10° N
Cosmos 1408 2.9 17:18:45 10° N 17:22:02 42° ENE 17:22:02 42° ENE
Cosmos 1420 Rocket 4.2 17:17:01 10° SW 17:22:18 71° NW 17:27:33 10° NNE
CZ-4C R/B 3.0 17:17:28 10° WNW 17:23:22 56° N 17:27:40 24° ENE
ARIANE 5 R/B 4.3 17:25:33 18° NE 17:25:33 18° NE 17:28:03 10° N
NOSS 2-2 (D) 4.5 17:22:12 10° WNW 17:27:07 67° SW 17:31:38 21° SE
MetOp-A 4.2 17:24:58 28° SE 17:27:40 55° ENE 17:32:55 10° NNW
Cosmos 1908 4.3 17:23:59 10° SW 17:27:42 47° WNW 17:31:28 10° N
Cosmos 2227 Rocket 2.1 17:22:24 10° NW 17:28:06 84° NE 17:31:21 27° SE
CZ-4 R/B 2.8 17:25:06 10° SSW 17:28:47 37° W 17:32:26 10° NNW
Cosmos 1486 Rocket 4.0 17:24:28 10° NNW 17:29:51 77° ENE 17:32:39 29° SE
Cosmos 1943 Rocket 3.2 17:25:58 10° WSW 17:31:16 44° NW 17:36:35 10° NE
COSMO-SKYMED 1 3.3 17:30:13 10° N 17:34:29 56° WNW 17:38:45 10° SW
Cosmos 1110 Rocket 4.0 17:29:57 10° S 17:35:05 57° ESE 17:40:14 10° NE
DMSP B5D1-3 4.4 17:32:32 10° NNE 17:37:41 71° ESE 17:42:49 10° S
USA 305 3.3 17:33:40 10° WSW 17:37:49 48° S 17:38:31 43° SSE
Cosmos 1553 Rocket 4.0 17:31:35 10° S 17:37:50 60° E 17:44:02 10° NNE
Cosmos 1844 Rocket 4.3 17:33:20 10° NW 17:37:54 24° N 17:40:21 18° NE
Cosmos 1503 Rocket 4.0 17:33:03 10° NNW 17:38:12 59° NE 17:39:42 43° ESE
ERBS 3.1 17:35:39 10° SW 17:38:17 40° SSW 17:38:17 40° SSW
ATLAS 5 CENTAUR R/B 1.8 17:36:05 10° WSW 17:40:26 77° NNW 17:42:36 33° NE
Cosmos 1892 2.6 17:37:48 10° NNW 17:41:42 88° W 17:42:51 45° S
COSMOS 2455 4.0 17:36:14 10° WNW 17:41:50 37° N 17:45:25 20° NE
Cosmos 968 Rocket 3.4 17:37:02 10° NNW 17:42:20 87° ENE 17:44:39 35° SSE
ATLAS 2AS CENTAUR R/B 3.1 17:35:36 10° WNW 17:43:25 65° NNE 17:46:53 34° E
USA 306 3.3 17:39:38 10° WSW 17:43:47 48° S 17:44:16 45° SSE
USA 215 4.0 17:40:04 20° SSE 17:44:26 46° SSW 17:50:42 10° WNW
Lacrosse 5 1.9 17:39:27 10° WSW 17:44:28 65° SSE 17:45:38 49° ESE
NOSS 2-1 (C) 3.0 17:41:49 10° WSW 17:45:14 83° NNW 17:45:39 68° NE
Cosmos 1354 Rocket 4.1 17:40:01 10° NNW 17:45:15 60° NE 17:46:28 47° ESE
H-2A R/B 2.8 17:41:15 10° S 17:46:33 57° W 17:51:58 10° NNW
Cosmos 2263 Rocket 2.9 17:41:21 10° NW 17:46:40 38° NNE 17:47:57 34° ENE
Meteor 2-3 Rocket 4.4 17:41:31 10° N 17:46:43 35° ENE 17:47:04 35° ENE
USA 186 3.7 17:49:12 18° NNW 17:49:12 18° NNW 17:50:03 10° NNW
CZ-2C R/B 3.0 17:42:22 10° NNE 17:47:37 43° E 17:47:37 43° E
ARGOS 3.5 17:43:40 10° S 17:49:03 67° WSW 17:54:31 10° NNW
NOSS 2-1 (D) 3.1 17:47:02 10° WSW 17:50:27 78° NNW 17:50:43 73° NNE
Cosmos 1241 Rocket 4.4 17:45:28 10° SSW 17:51:46 69° SE 17:55:26 27° ENE
SeaSat 1 4.1 17:47:48 10° S 17:52:12 32° WSW 17:56:38 10° NW
Cosmos 1745 Rocket 4.0 17:49:05 10° NNW 17:55:21 87° W 18:00:55 14° S
Cosmos 2151 3.9 17:51:55 10° N 17:54:51 35° NNE 17:54:51 35° NNE
SJ 16-02 3.2 17:55:35 10° N 17:58:15 18° NNE 17:58:15 18° NNE
SJ-6B 2.7 17:59:40 83° SSE 17:59:49 88° ENE 18:03:58 10° NNW
Cosmos 1300 3.4 17:58:51 10° SSW 18:02:36 54° WNW 18:06:23 10° N
Cosmos 1452 Rocket 4.1 17:57:39 10° SW 18:02:51 57° NW 18:08:06 10° NNE
EO 1 Delta rocket 4.0 18:02:39 10° NNE 18:08:43 73° E 18:10:35 40° S
Cosmos 2297 Rocket 2.8 18:03:40 10° NW 18:09:12 53° WSW 18:12:09 26° S
Cosmos 1400 Rocket 4.5 18:12:02 25° NNE 18:12:02 25° NNE 18:13:51 10° NNE
Cosmos 1656 Rocket 4.4 18:05:27 10° WSW 18:10:55 52° NW 18:16:21 11° NE
IRS-1A Rocket 4.4 18:09:32 29° S 18:12:32 74° WSW 18:18:07 10° NNW
Meteor 2-10 Rocket 3.9 18:15:48 48° NE 18:15:48 48° NE 18:19:41 10° NNE
Cosmos 2369 Rocket 3.5 18:09:31 10° WSW 18:14:50 39° NNW 18:20:01 11° NE
OBJECT-B 3.0 18:17:18 21° NNW 18:17:18 21° NNW 18:18:34 10° NNW
Spot 2 Rocket 4.4 18:19:17 34° NNE 18:19:17 34° NNE 18:23:01 10° N
Resurs 1-3 3.8 18:19:01 62° N 18:19:01 62° N 18:22:46 10° NNW
Cosmos 1825 3.2 18:18:36 10° NNW 18:21:14 42° NNW 18:21:14 42° NNW
Cosmos 1076 Rocket 3.7 18:18:54 10° NNW 18:23:01 66° W 18:23:01 66° W
Cosmos 1818 3.7 18:17:48 10° WSW 18:23:15 72° NNW 18:24:45 48° NE
USA 307 4.0 18:19:32 10° W 18:22:42 37° SW 18:22:42 37° SW
SPOT 5 4.5 18:27:30 24° NNE 18:27:30 24° NNE 18:30:14 10° N
Cosmos 1709 Rocket 4.0 18:19:42 10° NNW 18:26:05 88° WSW 18:28:15 45° S
Cosmos 2219 4.3 18:22:35 10° NW 18:27:55 40° WSW 18:30:55 23° SSW
Geosat 4.4 18:24:31 19° NNE 18:28:04 61° NW 18:33:01 10° SW
USA 308 4.1 18:24:06 10° W 18:27:06 35° SW 18:27:06 35° SW
Ariane Rocket 3.5 18:26:42 35° SSW 18:28:39 56° WSW 18:33:42 10° NNW
Meteor 2-1 Rocket 4.3 18:32:37 61° NE 18:32:37 61° NE 18:37:14 10° NNE
Cosmos 2315 Rocket 4.3 18:34:48 49° NE 18:34:48 49° NE 18:39:38 10° NNE
SL-4 R/B 4.4 18:32:27 10° WSW 18:33:10 14° SW 18:33:10 14° SW
Cosmos 2074 Rocket 4.2 18:29:56 10° N 18:35:39 54° NE 18:35:39 54° NE
Cosmos 1346 Rocket 4.3 18:37:32 10° NNW 18:41:11 34° W 18:41:13 34° W
Cosmos 2082 4.0 18:36:20 10° NW 18:41:59 60° WSW 18:42:47 55° SSW
Terra 3.7 18:43:56 20° NNE 18:43:56 20° NNE 18:45:55 10° N
MetOp-B 4.4 18:42:46 60° NNE 18:42:46 60° NNE 18:47:20 10° NNW
Meteor 2-15 Rocket 4.4 18:38:49 30° SSW 18:42:07 88° WNW 18:48:19 10° NNE
Cosmos 2058 4.4 18:40:25 10° NNW 18:44:07 33° W 18:44:32 32° WSW
SPOT 3 Rocket 3.6 18:47:25 74° W 18:47:25 74° W 18:52:32 10° NNW
S3M 4.1 18:43:17 10° SSW 18:49:23 71° WNW 18:55:34 10° N
Cosmos 2278 Rocket 3.9 18:46:39 10° NW 18:51:09 23° N 18:52:30 21° NNE
Cosmos 883 Rocket 4.3 18:52:59 84° NE 18:52:59 84° NE 18:59:00 10° NNE
Resurs 01 Rocket 2.8 18:54:26 40° NNW 18:54:26 40° NNW 18:57:18 10° NNW
Timation 1 Rocket 4.4 18:46:54 10° NW 18:52:54 70° WSW 18:53:09 69° SW
ARIANE 5 R/B 4.3 19:03:06 29° N 19:03:06 29° N 19:05:20 10° NNW
Cosmos 2154 Rocket 4.5 19:01:22 10° N 19:06:12 49° NNE 19:06:12 49° NNE
Cosmos 2227 Rocket 3.8 19:06:59 10° NW 19:11:38 27° WSW 19:13:11 24° SW
NOSS 3-4 (A) 3.7 19:05:32 10° WNW 19:12:13 76° SW 19:12:18 76° SSW
NOSS 3-4 (C) 3.7 19:05:39 10° WNW 19:12:20 76° SW 19:12:24 76° SSW
CZ-4C R/B 2.7 19:06:13 10° WNW 19:12:42 74° NNE 19:12:50 74° NE
Cosmos 1943 Rocket 4.1 19:11:57 10° WNW 19:16:23 24° NNW 19:18:42 18° NNE
Cosmos 1844 Rocket 3.8 19:17:49 10° NW 19:22:00 37° N 19:22:00 37° N
ATLAS 5 CENTAUR R/B 3.2 19:21:05 10° WNW 19:24:08 36° NW 19:24:08 36° NW
Lacrosse 5 3.4 19:22:16 10° W 19:24:49 30° W 19:24:49 30° W
CZ-2C R/B 3.5 19:22:44 10° N 19:28:09 49° WNW 19:29:06 44° W
COSMOS 2455 3.7 19:23:17 10° NW 19:28:33 42° N 19:28:33 42° N
Meteor 2-3 Rocket 4.4 19:24:43 10° NNW 19:29:22 53° WNW 19:29:22 53° WNW
Cosmos 2263 Rocket 2.9 19:25:24 10° NW 19:29:39 51° NW 19:29:39 51° NW
ATLAS 2AS CENTAUR R/B 2.9 19:27:03 10° NW 19:34:19 72° WSW 19:34:19 72° WSW
SJ 16-02 3.7 19:33:46 10° NNW 19:35:14 20° NNW 19:35:14 20° NNW
Cosmos 2369 Rocket 4.1 19:55:51 10° WNW 20:00:25 24° N 20:01:47 22° NNE
Terra 4.3 20:22:49 19° NNW 20:22:49 19° NNW 20:24:10 10° NNW
Cosmos 2278 Rocket 4.1 20:31:28 10° NW 20:34:20 26° NNW 20:34:20 26° NNW
CZ-4C R/B 4.1 20:54:42 10° WNW 20:57:59 31° WNW 20:57:59 31° WNW
Cosmos 1943 Rocket 4.3 20:57:28 10° NW 21:00:13 21° NNW 21:00:13 21° NNW
SL-16 R/B 4.4 21:41:27 22° NNE 21:41:27 22° NNE 21:45:01 10° N
Cosmos 2360 Rocket 4.3 23:22:57 22° NNE 23:22:57 22° NNE 23:25:01 10° NE
SL-16 R/B 4.2 23:26:33 27° NNW 23:26:33 27° NNW 23:29:11 10° NNW
Cosmos 1980 Rocket 4.3 23:33:34 22° N 23:33:34 22° N 23:36:48 10° NE
Cosmos 2219 Rocket 4.0 23:53:28 27° NNE 23:53:28 27° NNE 23:56:03 10° NE
